Dades meteomassalio
Diari Summary for Abril 20, 2017 Units:  Metric    English   Both
« Previous Day
Next Day »
Diari Semanal Mensual Anual Personalitzat
  Maxima: Minima: Mijana:
Temperatura: 17.1 °C 6.3 °C 11.7 °C
Rosada: 6.8 °C 0.7 °C 4.5 °C
Humitat: 85 % 35 % 63 %
Velocitat del vent: 27.4 km/h 0.0 km/h 6.8 km/h
Racha vent: 27.4 km/h - -
Vent:- - SE
Pressio: 1027.0 hPa 1022.6 hPa -
Pluja: 0.0 mm    
Historical Graphs
 
 
Tabular Data for Abril 20, 2017
Time Temperature Dew Point Pressure Wind Wind Speed Wind Gust Humidity Rainfall Rate (Hourly) solar Conditions
00:00 10.1 °C 5.5 °C 1022.6 hPa Calm     73 % 0.0 mm 0.0 W/m2 CLR
00:05 10.1 °C 5.6 °C 1022.6 hPa Calm     74 % 0.0 mm 0.0 W/m2 CLR
00:10 10.0 °C 5.6 °C 1022.6 hPa Calm     74 % 0.0 mm 0.0 W/m2 CLR
00:15 9.9 °C 5.5 °C 1022.6 hPa Calm     74 % 0.0 mm 0.0 W/m2 CLR
00:20 9.9 °C 5.4 °C 1022.6 hPa Calm     74 % 0.0 mm 0.0 W/m2 CLR
00:25 9.8 °C 5.4 °C 1022.6 hPa Calm     74 % 0.0 mm 0.0 W/m2 CLR
00:30 9.7 °C 5.5 °C 1022.6 hPa Calm     75 % 0.0 mm 0.0 W/m2 CLR
00:35 9.6 °C 5.4 °C 1022.6 hPa Calm     75 % 0.0 mm 0.0 W/m2 CLR
00:40 9.7 °C 5.4 °C 1022.6 hPa Calm     75 % 0.0 mm 0.0 W/m2 CLR
00:45 9.7 °C 5.4 °C 1022.9 hPa Calm     75 % 0.0 mm 0.0 W/m2 CLR
00:50 9.6 °C 5.3 °C 1022.9 hPa Calm     75 % 0.0 mm 0.0 W/m2 CLR
00:55 9.4 °C 5.2 °C 1022.9 hPa Calm     75 % 0.0 mm 0.0 W/m2 CLR
01:00 9.3 °C 5.3 °C 1022.9 hPa Calm     76 % 0.0 mm 0.0 W/m2 CLR
01:05 9.2 °C 5.2 °C 1022.9 hPa Calm     76 % 0.0 mm 0.0 W/m2 CLR
01:10 9.2 °C 5.3 °C 1022.9 hPa Calm     77 % 0.0 mm 0.0 W/m2 CLR
01:15 9.1 °C 5.1 °C 1023.2 hPa Calm     76 % 0.0 mm 0.0 W/m2 CLR
01:20 8.8 °C 4.8 °C 1022.9 hPa Calm     76 % 0.0 mm 0.0 W/m2 CLR
01:25 8.7 °C 4.9 °C 1022.9 hPa Calm     77 % 0.0 mm 0.0 W/m2 CLR
01:30 8.5 °C 4.9 °C 1023.2 hPa Calm     78 % 0.0 mm 0.0 W/m2 CLR
01:31 8.5 °C 4.9 °C 1023.2 hPa Calm     78 % 0.0 mm 0.0 W/m2 CLR
01:36 8.4 °C 4.9 °C 1023.2 hPa Calm     79 % 0.0 mm 0.0 W/m2 CLR
01:41 8.4 °C 4.9 °C 1023.2 hPa Calm     79 % 0.0 mm 0.0 W/m2 CLR
01:46 8.3 °C 4.9 °C 1023.2 hPa Calm     79 % 0.0 mm 0.0 W/m2 CLR
01:51 8.3 °C 4.8 °C 1023.2 hPa Calm     79 % 0.0 mm 0.0 W/m2 CLR
01:56 8.3 °C 5.1 °C 1023.2 hPa Calm     80 % 0.0 mm 0.0 W/m2 CLR
02:01 8.2 °C 5.0 °C 1023.2 hPa Calm     80 % 0.0 mm 0.0 W/m2 CLR
02:06 8.2 °C 4.9 °C 1023.2 hPa Calm     80 % 0.0 mm 0.0 W/m2 CLR
02:11 8.1 °C 4.9 °C 1023.2 hPa Calm     80 % 0.0 mm 0.0 W/m2 CLR
02:16 8.1 °C 4.8 °C 1023.2 hPa Calm     80 % 0.0 mm 0.0 W/m2 CLR
02:21 8.0 °C 4.9 °C 1023.2 hPa Calm     81 % 0.0 mm 0.0 W/m2 CLR
02:26 7.9 °C 4.9 °C 1023.2 hPa Calm     81 % 0.0 mm 0.0 W/m2 CLR
02:31 7.9 °C 4.9 °C 1023.2 hPa Calm     81 % 0.0 mm 0.0 W/m2 CLR
02:36 8.0 °C 4.9 °C 1023.2 hPa Calm     81 % 0.0 mm 0.0 W/m2 CLR
02:41 8.1 °C 4.8 °C 1023.2 hPa Calm     80 % 0.0 mm 0.0 W/m2 CLR
02:46 8.1 °C 5.0 °C 1023.2 hPa Calm     81 % 0.0 mm 0.0 W/m2 CLR
02:51 8.1 °C 5.1 °C 1023.2 hPa Calm     81 % 0.0 mm 0.0 W/m2 CLR
02:56 8.2 °C 5.1 °C 1023.2 hPa Calm     81 % 0.0 mm 0.0 W/m2 CLR
03:01 8.2 °C 5.2 °C 1023.6 hPa Calm     81 % 0.0 mm 0.0 W/m2 CLR
03:06 8.2 °C 5.2 °C 1023.2 hPa Calm     81 % 0.0 mm 0.0 W/m2 CLR
03:11 8.2 °C 5.2 °C 1023.2 hPa Calm     81 % 0.0 mm 0.0 W/m2 CLR
03:16 8.2 °C 5.1 °C 1023.2 hPa Calm     81 % 0.0 mm 0.0 W/m2 CLR
03:21 8.2 °C 5.1 °C 1023.6 hPa Calm     81 % 0.0 mm 0.0 W/m2 CLR
03:26 8.1 °C 5.1 °C 1023.6 hPa Calm     81 % 0.0 mm 0.0 W/m2 CLR
03:27 8.1 °C 5.1 °C 1023.6 hPa Calm     81 % 0.0 mm 0.0 W/m2 CLR
03:32 8.2 °C 5.1 °C 1023.6 hPa Calm     81 % 0.0 mm 0.0 W/m2 CLR
03:37 8.3 °C 5.2 °C 1023.6 hPa Calm     81 % 0.0 mm 0.0 W/m2 CLR
03:42 8.3 °C 5.1 °C 1023.6 hPa Calm     80 % 0.0 mm 0.0 W/m2 CLR
03:47 8.3 °C 5.1 °C 1023.6 hPa Calm     80 % 0.0 mm 0.0 W/m2 CLR
03:52 8.3 °C 5.1 °C 1023.2 hPa Calm     80 % 0.0 mm 0.0 W/m2 CLR
03:57 8.3 °C 5.1 °C 1023.6 hPa Calm     80 % 0.0 mm 0.0 W/m2 CLR
04:02 8.3 °C 5.1 °C 1023.6 hPa Calm     80 % 0.0 mm 0.0 W/m2 CLR
04:07 8.4 °C 5.1 °C 1023.6 hPa Calm     80 % 0.0 mm 0.0 W/m2 CLR
04:12 8.4 °C 5.1 °C 1023.6 hPa Calm     80 % 0.0 mm 0.0 W/m2 CLR
04:17 8.3 °C 5.1 °C 1023.6 hPa Calm     80 % 0.0 mm 0.0 W/m2 CLR
04:22 8.2 °C 5.0 °C 1023.6 hPa Calm     80 % 0.0 mm 0.0 W/m2 CLR
04:27 8.1 °C 5.1 °C 1023.6 hPa Calm     81 % 0.0 mm 0.0 W/m2 CLR
04:28 8.1 °C 5.1 °C 1023.6 hPa Calm     81 % 0.0 mm 0.0 W/m2 CLR
04:33 8.1 °C 5.0 °C 1023.6 hPa Calm     81 % 0.0 mm 0.0 W/m2 CLR
04:38 7.9 °C 4.9 °C 1023.6 hPa Calm     81 % 0.0 mm 0.0 W/m2 CLR
04:43 7.9 °C 5.0 °C 1023.6 hPa Calm     82 % 0.0 mm 0.0 W/m2 CLR
04:48 7.8 °C 4.8 °C 1023.6 hPa Calm     81 % 0.0 mm 0.0 W/m2 CLR
04:53 7.8 °C 4.9 °C 1023.6 hPa Calm     82 % 0.0 mm 0.0 W/m2 CLR
04:58 7.7 °C 4.8 °C 1023.6 hPa Calm     82 % 0.0 mm 0.0 W/m2 CLR
05:03 7.7 °C 4.8 °C 1023.6 hPa Calm     82 % 0.0 mm 0.0 W/m2 CLR
05:08 7.7 °C 4.8 °C 1023.6 hPa Calm     82 % 0.0 mm 0.0 W/m2 CLR
05:13 7.6 °C 4.7 °C 1023.6 hPa Calm     82 % 0.0 mm 0.0 W/m2 CLR
05:18 7.5 °C 4.6 °C 1023.6 hPa Calm     82 % 0.0 mm 0.0 W/m2 CLR
05:23 7.4 °C 4.7 °C 1023.6 hPa Calm     83 % 0.0 mm 0.0 W/m2 CLR
05:28 7.4 °C 4.7 °C 1023.6 hPa Calm     83 % 0.0 mm 0.0 W/m2 CLR
05:33 7.4 °C 4.7 °C 1023.6 hPa Calm     83 % 0.0 mm 0.0 W/m2 CLR
05:38 7.4 °C 4.7 °C 1023.6 hPa Calm     83 % 0.0 mm 0.0 W/m2 CLR
05:43 7.4 °C 4.7 °C 1023.6 hPa Calm     83 % 0.0 mm 0.0 W/m2 CLR
05:48 7.3 °C 4.6 °C 1023.6 hPa Calm     83 % 0.0 mm 0.0 W/m2 CLR
05:53 7.3 °C 4.6 °C 1023.6 hPa Calm     83 % 0.0 mm 0.0 W/m2 CLR
05:59 7.2 °C 4.5 °C 1023.6 hPa Calm     83 % 0.0 mm 0.0 W/m2 CLR
06:04 7.3 °C 4.6 °C 1023.6 hPa Calm     83 % 0.0 mm 0.0 W/m2 CLR
06:09 7.3 °C 4.6 °C 1023.6 hPa Calm     83 % 0.0 mm 0.0 W/m2 CLR
06:14 7.2 °C 4.4 °C 1023.6 hPa Calm     83 % 0.0 mm 0.0 W/m2 CLR
06:19 7.1 °C 4.4 °C 1023.6 hPa Calm     83 % 0.0 mm 0.0 W/m2 CLR
06:24 7.1 °C 4.4 °C 1023.9 hPa Calm     83 % 0.0 mm 0.0 W/m2 CLR
06:29 7.0 °C 4.3 °C 1023.6 hPa Calm     83 % 0.0 mm 0.0 W/m2 CLR
06:34 7.0 °C 4.5 °C 1023.6 hPa Calm     84 % 0.0 mm 0.0 W/m2 CLR
06:39 7.1 °C 4.6 °C 1023.6 hPa Calm     84 % 0.0 mm 0.0 W/m2 CLR
06:44 7.1 °C 4.6 °C 1023.6 hPa Calm     84 % 0.0 mm 0.0 W/m2 CLR
06:49 7.1 °C 4.4 °C 1023.6 hPa Calm     83 % 0.0 mm 0.0 W/m2 CLR
06:54 7.0 °C 4.3 °C 1023.6 hPa Calm     83 % 0.0 mm 0.0 W/m2 CLR
06:59 6.9 °C 4.4 °C 1023.6 hPa Calm     84 % 0.0 mm 0.0 W/m2 CLR
07:04 6.8 °C 4.3 °C 1023.9 hPa Calm     84 % 0.0 mm 0.0 W/m2 OVC
07:09 6.8 °C 4.3 °C 1023.9 hPa Calm     84 % 0.0 mm 7.0 W/m2 OVC
07:14 6.7 °C 4.2 °C 1023.9 hPa Calm     84 % 0.0 mm 7.0 W/m2 OVC
07:19 6.6 °C 4.1 °C 1023.9 hPa Calm     84 % 0.0 mm 11.0 W/m2 BKN
07:24 6.6 °C 4.1 °C 1023.9 hPa Calm     84 % 0.0 mm 14.0 W/m2 BKN
07:29 6.4 °C 3.9 °C 1023.9 hPa Calm     84 % 0.0 mm 18.0 W/m2 BKN
07:34 6.4 °C 3.9 °C 1023.9 hPa Calm     84 % 0.0 mm 23.0 W/m2 BKN
07:39 6.3 °C 4.0 °C 1024.3 hPa Calm     85 % 0.0 mm 30.0 W/m2 BKN
07:44 6.3 °C 4.0 °C 1024.3 hPa Calm     85 % 0.0 mm 37.0 W/m2 BKN
07:49 6.3 °C 4.0 °C 1024.3 hPa Calm     85 % 0.0 mm 49.0 W/m2 BKN
07:54 6.4 °C 4.1 °C 1024.3 hPa Calm     85 % 0.0 mm 53.0 W/m2 SCT
07:59 6.3 °C 4.0 °C 1024.6 hPa Calm     85 % 0.0 mm 58.0 W/m2 SCT
08:04 6.3 °C 4.0 °C 1024.6 hPa Calm     85 % 0.0 mm 63.0 W/m2 SCT
08:09 6.3 °C 4.0 °C 1024.6 hPa Calm     85 % 0.0 mm 72.0 W/m2 FEW
08:14 6.4 °C 4.1 °C 1024.6 hPa Calm     85 % 0.0 mm 83.0 W/m2 FEW
08:19 6.5 °C 4.2 °C 1024.6 hPa Calm     85 % 0.0 mm 97.0 W/m2 FEW
08:24 6.6 °C 4.3 °C 1024.6 hPa Calm     85 % 0.0 mm 104.0 W/m2 CLR
08:29 6.8 °C 4.4 °C 1024.6 hPa Calm     85 % 0.0 mm 132.0 W/m2 CLR
08:34 7.0 °C 4.5 °C 1024.9 hPa Calm     84 % 0.0 mm 130.0 W/m2 CLR
08:39 7.3 °C 4.8 °C 1024.9 hPa Calm     84 % 0.0 mm 151.0 W/m2 CLR
08:44 7.6 °C 4.8 °C 1024.9 hPa Calm     83 % 0.0 mm 165.0 W/m2 CLR
08:49 7.8 °C 4.9 °C 1024.9 hPa Calm     82 % 0.0 mm 165.0 W/m2 CLR
08:54 8.0 °C 5.1 °C 1024.9 hPa Calm     82 % 0.0 mm 174.0 W/m2 CLR
08:59 8.3 °C 5.3 °C 1024.9 hPa Calm     81 % 0.0 mm 169.0 W/m2 CLR
09:04 8.7 °C 5.4 °C 1024.9 hPa Calm     80 % 0.0 mm 174.0 W/m2 CLR
09:09 8.8 °C 5.4 °C 1024.9 hPa Calm     79 % 0.0 mm 162.0 W/m2 CLR
09:14 9.0 °C 5.6 °C 1024.9 hPa Calm     79 % 0.0 mm 190.0 W/m2 CLR
09:19 9.1 °C 5.5 °C 1024.9 hPa Calm     78 % 0.0 mm 216.0 W/m2 CLR
09:20 9.2 °C 5.6 °C 1024.9 hPa Calm     78 % 0.0 mm 218.0 W/m2 CLR
09:25 9.3 °C 5.6 °C 1024.9 hPa Calm     78 % 0.0 mm 229.0 W/m2 CLR
09:30 9.3 °C 5.7 °C 1024.9 hPa Calm     78 % 0.0 mm 250.0 W/m2 CLR
09:35 9.6 °C 5.9 °C 1024.9 hPa Calm     78 % 0.0 mm 271.0 W/m2 CLR
09:40 9.9 °C 6.1 °C 1024.9 hPa Calm     77 % 0.0 mm 297.0 W/m2 CLR
09:45 10.3 °C 6.1 °C 1024.9 hPa Calm     75 % 0.0 mm 302.0 W/m2 CLR
09:50 10.6 °C 6.3 °C 1024.9 hPa Calm     75 % 0.0 mm 318.0 W/m2 CLR
09:55 10.9 °C 6.3 °C 1024.9 hPa Calm     73 % 0.0 mm 330.0 W/m2 CLR
10:00 11.3 °C 6.3 °C 1024.9 hPa Calm     71 % 0.0 mm 355.0 W/m2 CLR
10:05 11.6 °C 6.3 °C 1024.9 hPa Calm     70 % 0.0 mm 353.0 W/m2 CLR
10:10 12.0 °C 6.5 °C 1024.9 hPa Calm     69 % 0.0 mm 371.0 W/m2 CLR
10:15 12.4 °C 6.7 °C 1024.9 hPa Calm     68 % 0.0 mm 397.0 W/m2 CLR
10:20 12.8 °C 4.7 °C 1024.9 hPa Calm     58 % 0.0 mm 408.0 W/m2 CLR
10:25 13.1 °C 4.3 °C 1024.9 hPa SE 9.3 km/h 9.3 km/h 55 % 0.0 mm 399.0 W/m2 CLR
10:30 13.2 °C 4.1 °C 1024.9 hPa ESE 11.1 km/h 11.1 km/h 54 % 0.0 mm 417.0 W/m2 CLR
10:35 13.4 °C 4.0 °C 1024.9 hPa South 8.0 km/h 8.0 km/h 53 % 0.0 mm 410.0 W/m2 CLR
10:40 13.4 °C 4.1 °C 1024.9 hPa SE 3.7 km/h 3.7 km/h 53 % 0.0 mm 462.0 W/m2 CLR
10:45 13.8 °C 3.5 °C 1024.9 hPa SSE 7.4 km/h 7.4 km/h 50 % 0.0 mm 499.0 W/m2 CLR
10:50 13.7 °C 3.5 °C 1024.9 hPa SSE 1.9 km/h   50 % 0.0 mm 499.0 W/m2 CLR
10:55 14.1 °C 4.1 °C 1024.9 hPa South 11.1 km/h 11.1 km/h 51 % 0.0 mm 548.0 W/m2 CLR
10:56 14.1 °C 4.1 °C 1024.9 hPa SSE 8.0 km/h 8.0 km/h 51 % 0.0 mm 557.0 W/m2 CLR
11:01 14.2 °C 4.2 °C 1024.9 hPa SE 11.1 km/h 11.1 km/h 51 % 0.0 mm 555.0 W/m2 CLR
11:06 14.4 °C 4.4 °C 1024.9 hPa ESE 5.6 km/h 5.6 km/h 51 % 0.0 mm 547.0 W/m2 CLR
11:11 14.6 °C 4.3 °C 1024.9 hPa ESE 3.7 km/h 3.7 km/h 50 % 0.0 mm 592.0 W/m2 CLR
11:16 14.6 °C 4.3 °C 1024.9 hPa East 9.3 km/h 9.3 km/h 50 % 0.0 mm 589.0 W/m2 CLR
11:21 14.6 °C 3.7 °C 1024.9 hPa SSE 9.3 km/h 9.3 km/h 48 % 0.0 mm 584.0 W/m2 CLR
11:26 14.7 °C 4.1 °C 1024.9 hPa South 7.4 km/h 7.4 km/h 49 % 0.0 mm 591.0 W/m2 CLR
11:31 14.9 °C 4.3 °C 1024.9 hPa East 5.6 km/h   49 % 0.0 mm 541.0 W/m2 CLR
11:36 15.1 °C 4.4 °C 1024.9 hPa ESE 5.6 km/h 5.6 km/h 49 % 0.0 mm 654.0 W/m2 CLR
11:41 15.4 °C 4.7 °C 1024.9 hPa South 11.1 km/h 11.1 km/h 49 % 0.0 mm 526.0 W/m2 CLR
11:46 15.3 °C 4.6 °C 1024.9 hPa ESE 7.4 km/h 7.4 km/h 49 % 0.0 mm 621.0 W/m2 CLR
11:51 15.4 °C 5.0 °C 1024.9 hPa ENE 8.0 km/h 8.0 km/h 50 % 0.0 mm 626.0 W/m2 CLR
11:57 15.7 °C 4.7 °C 1024.9 hPa South 13.0 km/h 13.0 km/h 48 % 0.0 mm 682.0 W/m2 CLR
12:01 15.7 °C 4.7 °C 1024.9 hPa ENE 9.3 km/h 9.3 km/h 48 % 0.0 mm 689.0 W/m2 CLR
12:06 15.9 °C 5.2 °C 1024.9 hPa East 11.3 km/h 11.3 km/h 49 % 0.0 mm 828.0 W/m2 CLR
12:12 16.1 °C 5.4 °C 1024.9 hPa SE 9.3 km/h 9.3 km/h 49 % 0.0 mm 833.0 W/m2 CLR
12:17 16.3 °C 5.6 °C 1024.9 hPa South 9.3 km/h 9.3 km/h 49 % 0.0 mm 812.0 W/m2 CLR
12:22 16.6 °C 5.6 °C 1024.9 hPa NE 8.0 km/h 8.0 km/h 48 % 0.0 mm 726.0 W/m2 CLR
12:27 16.6 °C 5.6 °C 1024.9 hPa SE 18.5 km/h 18.5 km/h 48 % 0.0 mm 698.0 W/m2 CLR
12:32 16.1 °C 5.3 °C 1024.6 hPa ESE 11.1 km/h 11.1 km/h 49 % 0.0 mm 413.0 W/m2 CLR
12:37 16.0 °C 5.6 °C 1024.9 hPa SW 6.4 km/h 6.4 km/h 50 % 0.0 mm 390.0 W/m2 CLR
12:42 15.9 °C 5.5 °C 1024.9 hPa SSE 11.1 km/h 11.1 km/h 50 % 0.0 mm 396.0 W/m2 CLR
12:47 15.8 °C 6.2 °C 1024.9 hPa SSE 18.5 km/h 18.5 km/h 53 % 0.0 mm 482.0 W/m2 CLR
12:52 15.9 °C 6.3 °C 1024.9 hPa SE 18.5 km/h 18.5 km/h 53 % 0.0 mm 643.0 W/m2 CLR
12:57 15.8 °C 6.3 °C 1024.9 hPa SE 20.4 km/h 20.4 km/h 53 % 0.0 mm 789.0 W/m2 CLR
13:02 15.7 °C 6.2 °C 1024.6 hPa SE 24.1 km/h 24.1 km/h 53 % 0.0 mm 647.0 W/m2 CLR
13:07 15.7 °C 6.4 °C 1024.6 hPa SSE 16.7 km/h 16.7 km/h 54 % 0.0 mm 663.0 W/m2 CLR
13:12 15.8 °C 6.8 °C 1024.6 hPa SE 19.3 km/h 19.3 km/h 55 % 0.0 mm 816.0 W/m2 CLR
13:17 15.9 °C 6.6 °C 1024.6 hPa SSW 22.2 km/h 22.2 km/h 54 % 0.0 mm 701.0 W/m2 CLR
13:22 15.6 °C 6.6 °C 1024.6 hPa SSE 20.4 km/h 20.4 km/h 55 % 0.0 mm 788.0 W/m2 CLR
13:27 15.8 °C 6.8 °C 1024.6 hPa SE 24.1 km/h 24.1 km/h 55 % 0.0 mm 812.0 W/m2 CLR
13:32 15.8 °C 6.6 °C 1024.6 hPa SSE 18.5 km/h 18.5 km/h 54 % 0.0 mm 608.0 W/m2 CLR
13:37 15.9 °C 6.6 °C 1024.6 hPa SE 18.5 km/h 18.5 km/h 54 % 0.0 mm 817.0 W/m2 CLR
13:42 15.8 °C 6.8 °C 1024.6 hPa SSE 25.9 km/h 25.9 km/h 55 % 0.0 mm 865.0 W/m2 CLR
13:47 16.2 °C 6.8 °C 1024.6 hPa SSW 18.5 km/h 18.5 km/h 54 % 0.0 mm 628.0 W/m2 CLR
13:52 16.1 °C 6.2 °C 1024.3 hPa SSW 24.1 km/h 24.1 km/h 52 % 0.0 mm 728.0 W/m2 CLR
13:57 16.2 °C 6.6 °C 1024.6 hPa SSW 16.7 km/h 16.7 km/h 53 % 0.0 mm 889.0 W/m2 CLR
14:02 16.2 °C 6.6 °C 1024.6 hPa ESE 24.1 km/h 24.1 km/h 53 % 0.0 mm 775.0 W/m2 CLR
14:07 15.9 °C 6.4 °C 1024.6 hPa SE 24.1 km/h 24.1 km/h 53 % 0.0 mm 849.0 W/m2 CLR
14:12 16.2 °C 6.6 °C 1024.3 hPa SSE 24.1 km/h 24.1 km/h 53 % 0.0 mm 570.0 W/m2 CLR
14:17 16.4 °C 6.8 °C 1024.3 hPa SSE 20.4 km/h 20.4 km/h 53 % 0.0 mm 821.0 W/m2 CLR
14:22 16.7 °C 6.8 °C 1024.3 hPa SSE 22.5 km/h 22.5 km/h 52 % 0.0 mm 555.0 W/m2 CLR
14:27 16.7 °C 6.8 °C 1024.3 hPa South 22.2 km/h 22.2 km/h 52 % 0.0 mm 946.0 W/m2 CLR
14:32 16.4 °C 6.6 °C 1024.3 hPa South 22.2 km/h 22.2 km/h 52 % 0.0 mm 900.0 W/m2 CLR
14:37 16.6 °C 6.7 °C 1024.3 hPa South 13.0 km/h 13.0 km/h 52 % 0.0 mm 969.0 W/m2 CLR
14:43 16.8 °C 6.6 °C 1024.3 hPa SSE 16.1 km/h 16.1 km/h 51 % 0.0 mm 754.0 W/m2 CLR
14:48 16.7 °C 6.5 °C 1024.3 hPa SE 14.8 km/h 14.8 km/h 51 % 0.0 mm 754.0 W/m2 CLR
14:53 16.9 °C 6.7 °C 1024.3 hPa ESE 14.8 km/h 14.8 km/h 51 % 0.0 mm 1025.0 W/m2 CLR
14:58 17.1 °C 6.3 °C 1024.3 hPa ESE 7.4 km/h 7.4 km/h 49 % 0.0 mm 976.0 W/m2 CLR
15:03 17.0 °C 6.2 °C 1024.3 hPa SE 18.5 km/h 18.5 km/h 49 % 0.0 mm 366.0 W/m2 CLR
15:08 16.9 °C 6.7 °C 1024.3 hPa South 14.8 km/h 14.8 km/h 51 % 0.0 mm 415.0 W/m2 CLR
15:13 16.9 °C 6.4 °C 1024.3 hPa SSW 16.7 km/h 16.7 km/h 50 % 0.0 mm 478.0 W/m2 CLR
15:18 16.7 °C 6.5 °C 1024.3 hPa ESE 18.5 km/h 18.5 km/h 51 % 0.0 mm 497.0 W/m2 CLR
15:23 16.7 °C 6.5 °C 1024.3 hPa SE 24.1 km/h 24.1 km/h 51 % 0.0 mm 462.0 W/m2 CLR
15:28 16.3 °C 6.4 °C 1024.3 hPa SE 20.4 km/h 20.4 km/h 52 % 0.0 mm 970.0 W/m2 CLR
15:33 16.4 °C 6.5 °C 1024.3 hPa SE 22.2 km/h 22.2 km/h 52 % 0.0 mm 338.0 W/m2 CLR
15:38 16.6 °C 6.4 °C 1024.3 hPa SE 22.2 km/h 22.2 km/h 51 % 0.0 mm 494.0 W/m2 CLR
15:43 16.7 °C 6.5 °C 1024.3 hPa South 13.0 km/h 13.0 km/h 51 % 0.0 mm 693.0 W/m2 CLR
15:48 16.7 °C 6.5 °C 1024.3 hPa SE 18.5 km/h 18.5 km/h 51 % 0.0 mm 772.0 W/m2 CLR
15:53 16.4 °C 6.2 °C 1024.3 hPa SE 22.2 km/h 22.2 km/h 51 % 0.0 mm 466.0 W/m2 CLR
15:58 16.3 °C 6.2 °C 1024.3 hPa SE 24.1 km/h 24.1 km/h 51 % 0.0 mm 373.0 W/m2 CLR
16:03 16.3 °C 6.4 °C 1024.3 hPa SE 16.7 km/h 16.7 km/h 52 % 0.0 mm 766.0 W/m2 CLR
16:08 16.4 °C 6.3 °C 1023.9 hPa SE 13.0 km/h 13.0 km/h 51 % 0.0 mm 861.0 W/m2 CLR
16:13 16.7 °C 5.9 °C 1024.3 hPa SE 18.5 km/h 18.5 km/h 49 % 0.0 mm 838.0 W/m2 CLR
16:18 16.8 °C 5.7 °C 1023.9 hPa South 13.0 km/h 13.0 km/h 48 % 0.0 mm 675.0 W/m2 CLR
16:23 17.0 °C 5.6 °C 1023.9 hPa SE 27.4 km/h 27.4 km/h 47 % 0.0 mm 647.0 W/m2 CLR
16:28 16.7 °C 5.6 °C 1023.9 hPa SE 16.1 km/h 16.1 km/h 48 % 0.0 mm 729.0 W/m2 CLR
16:33 16.6 °C 5.8 °C 1023.9 hPa SSE 5.6 km/h 5.6 km/h 49 % 0.0 mm 816.0 W/m2 CLR
16:38 16.9 °C 5.6 °C 1023.9 hPa ESE 18.5 km/h 18.5 km/h 47 % 0.0 mm 287.0 W/m2 CLR
16:43 16.7 °C 5.3 °C 1023.9 hPa SE 16.7 km/h 16.7 km/h 47 % 0.0 mm 292.0 W/m2 CLR
16:48 16.7 °C 5.3 °C 1023.9 hPa ESE 18.5 km/h 18.5 km/h 47 % 0.0 mm 357.0 W/m2 CLR
16:53 16.5 °C 4.8 °C 1023.9 hPa South 13.0 km/h 13.0 km/h 46 % 0.0 mm 731.0 W/m2 CLR
16:58 16.5 °C 4.8 °C 1023.9 hPa ESE 16.7 km/h 16.7 km/h 46 % 0.0 mm 260.0 W/m2 CLR
17:03 16.6 °C 4.6 °C 1023.9 hPa SSE 18.5 km/h 18.5 km/h 45 % 0.0 mm 315.0 W/m2 CLR
17:08 16.4 °C 4.4 °C 1023.9 hPa ESE 5.6 km/h 5.6 km/h 45 % 0.0 mm 640.0 W/m2 CLR
17:13 16.7 °C 5.1 °C 1023.9 hPa East 13.0 km/h 13.0 km/h 46 % 0.0 mm 415.0 W/m2 CLR
17:18 16.8 °C 4.8 °C 1023.9 hPa ESE 13.0 km/h 13.0 km/h 45 % 0.0 mm 431.0 W/m2 CLR
17:23 16.7 °C 4.7 °C 1023.9 hPa ESE 18.5 km/h 18.5 km/h 45 % 0.0 mm 487.0 W/m2 CLR
17:28 16.6 °C 4.6 °C 1023.9 hPa SE 24.1 km/h 24.1 km/h 45 % 0.0 mm 596.0 W/m2 CLR
17:33 16.7 °C 4.4 °C 1023.9 hPa ESE 8.0 km/h 8.0 km/h 44 % 0.0 mm 550.0 W/m2 CLR
17:38 16.7 °C 3.3 °C 1023.9 hPa ESE 22.2 km/h 22.2 km/h 41 % 0.0 mm 531.0 W/m2 CLR
17:43 16.6 °C 3.2 °C 1023.9 hPa SE 14.8 km/h 14.8 km/h 41 % 0.0 mm 439.0 W/m2 CLR
17:48 16.4 °C 3.4 °C 1023.9 hPa SSE 13.0 km/h 13.0 km/h 42 % 0.0 mm 355.0 W/m2 CLR
17:53 16.2 °C 2.6 °C 1023.9 hPa SE 14.5 km/h 14.5 km/h 40 % 0.0 mm 394.0 W/m2 CLR
17:58 16.3 °C 1.6 °C 1023.9 hPa SE 16.7 km/h 16.7 km/h 37 % 0.0 mm 489.0 W/m2 CLR
18:03 16.3 °C 0.8 °C 1023.9 hPa SSE 14.8 km/h 14.8 km/h 35 % 0.0 mm 343.0 W/m2 CLR
18:08 16.4 °C 1.7 °C 1023.9 hPa SE 19.3 km/h 19.3 km/h 37 % 0.0 mm 390.0 W/m2 CLR
18:13 16.2 °C 2.2 °C 1023.9 hPa East 20.4 km/h 20.4 km/h 39 % 0.0 mm 255.0 W/m2 CLR
18:18 16.2 °C 1.4 °C 1023.9 hPa ESE 19.3 km/h 19.3 km/h 37 % 0.0 mm 260.0 W/m2 CLR
18:23 16.1 °C 1.4 °C 1023.9 hPa SE 18.5 km/h 18.5 km/h 37 % 0.0 mm 392.0 W/m2 CLR
18:28 16.1 °C 1.0 °C 1023.9 hPa ESE 13.0 km/h 13.0 km/h 36 % 0.0 mm 415.0 W/m2 CLR
18:33 16.2 °C 2.2 °C 1024.3 hPa SE 18.5 km/h 18.5 km/h 39 % 0.0 mm 366.0 W/m2 CLR
18:39 15.9 °C 1.9 °C 1023.9 hPa ESE 20.4 km/h 20.4 km/h 39 % 0.0 mm 202.0 W/m2 CLR
18:43 15.8 °C 2.2 °C 1023.9 hPa SE 18.5 km/h 18.5 km/h 40 % 0.0 mm 221.0 W/m2 CLR
18:49 15.9 °C 1.6 °C 1024.3 hPa SE 18.5 km/h 18.5 km/h 38 % 0.0 mm 302.0 W/m2 CLR
18:54 15.8 °C 0.7 °C 1024.3 hPa SE 20.4 km/h 20.4 km/h 36 % 0.0 mm 202.0 W/m2 CLR
18:59 15.7 °C 0.7 °C 1024.3 hPa SE 22.2 km/h 22.2 km/h 36 % 0.0 mm 299.0 W/m2 CLR
19:04 15.6 °C 1.7 °C 1024.3 hPa SE 18.5 km/h 18.5 km/h 39 % 0.0 mm 283.0 W/m2 CLR
19:09 15.6 °C 1.7 °C 1024.3 hPa ESE 18.5 km/h 18.5 km/h 39 % 0.0 mm 211.0 W/m2 CLR
19:14 15.6 °C 1.3 °C 1024.3 hPa SE 16.7 km/h 16.7 km/h 38 % 0.0 mm 237.0 W/m2 CLR
19:19 15.4 °C 1.2 °C 1024.3 hPa SSE 18.5 km/h 18.5 km/h 38 % 0.0 mm 160.0 W/m2 CLR
19:24 15.3 °C 1.4 °C 1024.3 hPa SE 18.5 km/h 18.5 km/h 39 % 0.0 mm 130.0 W/m2 CLR
19:29 15.2 °C 0.9 °C 1024.3 hPa ESE 18.5 km/h 18.5 km/h 38 % 0.0 mm 176.0 W/m2 CLR
19:34 15.1 °C 1.2 °C 1024.3 hPa SSE 18.5 km/h 18.5 km/h 39 % 0.0 mm 153.0 W/m2 CLR
19:39 15.0 °C 0.8 °C 1024.3 hPa SSE 14.8 km/h 14.8 km/h 38 % 0.0 mm 135.0 W/m2 CLR
19:44 14.9 °C 1.4 °C 1024.6 hPa SSE 18.5 km/h 18.5 km/h 40 % 0.0 mm 121.0 W/m2 CLR
19:49 14.7 °C 1.6 °C 1024.6 hPa SE 18.5 km/h 18.5 km/h 41 % 0.0 mm 100.0 W/m2 CLR
19:54 14.6 °C 1.5 °C 1024.3 hPa SE 13.0 km/h 13.0 km/h 41 % 0.0 mm 84.0 W/m2 FEW
19:59 14.6 °C 1.8 °C 1024.6 hPa SSE 9.3 km/h 9.3 km/h 42 % 0.0 mm 69.0 W/m2 FEW
20:04 14.4 °C 1.7 °C 1024.6 hPa SSE 16.7 km/h 16.7 km/h 42 % 0.0 mm 51.0 W/m2 SCT
20:09 14.3 °C 1.5 °C 1024.6 hPa SSE 13.0 km/h 13.0 km/h 42 % 0.0 mm 42.0 W/m2 BKN
20:14 14.2 °C 1.8 °C 1024.6 hPa SE 9.3 km/h 9.3 km/h 43 % 0.0 mm 30.0 W/m2 BKN
20:19 14.0 °C 1.9 °C 1024.6 hPa SSE 11.3 km/h 11.3 km/h 44 % 0.0 mm 23.0 W/m2 BKN
20:24 13.9 °C 1.8 °C 1024.9 hPa SSE 11.1 km/h 11.1 km/h 44 % 0.0 mm 18.0 W/m2 BKN
20:29 13.6 °C 2.2 °C 1024.9 hPa SE 9.3 km/h 9.3 km/h 46 % 0.0 mm 14.0 W/m2 BKN
20:34 13.4 °C 2.3 °C 1024.9 hPa ESE 7.4 km/h 7.4 km/h 47 % 0.0 mm 11.0 W/m2 BKN
20:39 13.3 °C 2.5 °C 1024.9 hPa SE 9.3 km/h 9.3 km/h 48 % 0.0 mm 9.0 W/m2 BKN
20:44 13.1 °C 2.3 °C 1024.9 hPa SSE 11.1 km/h 11.1 km/h 48 % 0.0 mm 5.0 W/m2 OVC
20:49 12.9 °C 2.5 °C 1025.3 hPa SSE 9.3 km/h 9.3 km/h 49 % 0.0 mm 0.0 W/m2 OVC
20:54 12.8 °C 2.4 °C 1025.3 hPa SSE 5.6 km/h   49 % 0.0 mm 0.0 W/m2 OVC
20:59 12.6 °C 2.7 °C 1025.3 hPa ESE 5.6 km/h 5.6 km/h 51 % 0.0 mm 0.0 W/m2 CLR
21:04 12.4 °C 2.8 °C 1025.3 hPa SE 5.6 km/h 5.6 km/h 52 % 0.0 mm 0.0 W/m2 CLR
21:09 12.3 °C 2.9 °C 1025.6 hPa Calm     53 % 0.0 mm 0.0 W/m2 CLR
21:14 12.1 °C 2.8 °C 1025.6 hPa Calm     53 % 0.0 mm 0.0 W/m2 CLR
21:19 11.9 °C 2.9 °C 1025.6 hPa Calm     54 % 0.0 mm 0.0 W/m2 CLR
21:24 11.8 °C 3.1 °C 1026.0 hPa Calm     55 % 0.0 mm 0.0 W/m2 CLR
21:29 11.8 °C 3.1 °C 1026.0 hPa Calm     55 % 0.0 mm 0.0 W/m2 CLR
21:34 11.7 °C 3.2 °C 1026.0 hPa Calm     56 % 0.0 mm 0.0 W/m2 CLR
21:39 11.6 °C 3.1 °C 1026.0 hPa Calm     56 % 0.0 mm 0.0 W/m2 CLR
21:44 11.4 °C 3.2 °C 1026.0 hPa Calm     57 % 0.0 mm 0.0 W/m2 CLR
21:49 11.3 °C 3.1 °C 1026.0 hPa Calm     57 % 0.0 mm 0.0 W/m2 CLR
21:54 11.2 °C 3.3 °C 1026.0 hPa SSE 5.6 km/h 5.6 km/h 58 % 0.0 mm 0.0 W/m2 CLR
21:59 11.1 °C 3.2 °C 1026.3 hPa SSE 7.4 km/h 7.4 km/h 58 % 0.0 mm 0.0 W/m2 CLR
22:04 11.0 °C 3.3 °C 1026.3 hPa Calm     59 % 0.0 mm 0.0 W/m2 CLR
22:09 10.7 °C 3.0 °C 1026.3 hPa Calm     59 % 0.0 mm 0.0 W/m2 CLR
22:14 10.4 °C 2.9 °C 1026.3 hPa SSE 7.4 km/h 7.4 km/h 60 % 0.0 mm 0.0 W/m2 CLR
22:19 10.2 °C 3.3 °C 1026.3 hPa SSE 9.3 km/h 9.3 km/h 62 % 0.0 mm 0.0 W/m2 CLR
22:24 10.4 °C 3.4 °C 1026.3 hPa SE 7.4 km/h 7.4 km/h 62 % 0.0 mm 0.0 W/m2 CLR
22:29 10.4 °C 3.4 °C 1026.3 hPa Calm     62 % 0.0 mm 0.0 W/m2 CLR
22:34 10.4 °C 3.4 °C 1026.6 hPa Calm     62 % 0.0 mm 0.0 W/m2 CLR
22:39 10.2 °C 3.5 °C 1026.6 hPa Calm     63 % 0.0 mm 0.0 W/m2 CLR
22:44 10.2 °C 3.4 °C 1026.6 hPa Calm     63 % 0.0 mm 0.0 W/m2 CLR
22:49 9.9 °C 3.2 °C 1026.6 hPa Calm     63 % 0.0 mm 0.0 W/m2 CLR
22:54 9.8 °C 3.3 °C 1026.6 hPa Calm     64 % 0.0 mm 0.0 W/m2 CLR
22:59 9.6 °C 3.1 °C 1027.0 hPa Calm     64 % 0.0 mm 0.0 W/m2 CLR
23:04 9.4 °C 3.1 °C 1027.0 hPa Calm     65 % 0.0 mm 0.0 W/m2 CLR
23:09 9.2 °C 2.9 °C 1027.0 hPa Calm     65 % 0.0 mm 0.0 W/m2 CLR
23:14 8.9 °C 2.9 °C 1027.0 hPa Calm     66 % 0.0 mm 0.0 W/m2 CLR
23:19 8.7 °C 2.9 °C 1027.0 hPa Calm     67 % 0.0 mm 0.0 W/m2 CLR
23:24 8.5 °C 2.5 °C 1027.0 hPa Calm     66 % 0.0 mm 0.0 W/m2 CLR
23:29 8.3 °C 2.3 °C 1027.0 hPa Calm     66 % 0.0 mm 0.0 W/m2 CLR
23:34 8.1 °C 2.3 °C 1027.0 hPa Calm     67 % 0.0 mm 0.0 W/m2 CLR
23:39 7.9 °C 2.3 °C 1027.0 hPa Calm     68 % 0.0 mm 0.0 W/m2 CLR
23:44 7.6 °C 2.3 °C 1027.0 hPa Calm     69 % 0.0 mm 0.0 W/m2 CLR
23:49 7.4 °C 2.3 °C 1027.0 hPa Calm     70 % 0.0 mm 0.0 W/m2 CLR
23:55 7.2 °C 2.1 °C 1027.0 hPa Calm     70 % 0.0 mm 0.0 W/m2 CLR
Lo Temps de Massalio
Compliments of Weather Underground - 1.25 mb